Location: *
(46.1866°S, 178.5290°W)
Time: 14:48:34
(UTC+00:00)

Cosmos 1461 - Pass Details

Date: 04 October 2021
Orbit: 520 x 642 km, 65.0° (Epoch: 18 October)

Event Time Altitude Azimuth Distance (km) Brightness Sun altitude
Rises 14:35:23 0° 212° (SSW) 2,927 6.6 -26.5°
Reaches altitude 10° 14:37:52 10° 201° (SSW) 2,032 5.9 -26.1°
Maximum altitude 14:42:03 33° 137° (SE) 1,096 4.9 -25.6°
Drops below altitude 10° 14:46:16 10° 72° (ENE) 2,052 6.1 -25.0°
Sets 14:48:46 0° 62° (ENE) 2,959 6.9 -24.7°
